Location: Wells
(51.2093°N, 2.6446°W)
Time: 07:42:48
(UTC+01:00)

CUBEBUG 2 - Pass Details

Date: 19 March 2026
Orbit: 548 x 627 km, 97.9° (Epoch: 14 April)

Event Time Altitude Azimuth Distance (km) Brightness Sun altitude
Rises 04:01:22 0° 3° (N) 2,904 ? -21.1°
Reaches altitude 10° 04:04:00 10° 347° (NNW) 2,003 ? -20.8°
Enters shadow 04:06:32 19° 312° (NW) 1,483 ? -20.4°
